Regional Weather Roundup
Issued by NWS Spokane, WA

Current Version | Previous Version | Text Only | Print | Product List | Glossary On
Versions: 1 2 3 4 5 6 7 8 9 10 11 12 13 14 15 16 17 18 19 20 21 22 23 24 25 26 27 28 29 30 31 32 33 34 35 36 37 38 39 40 41 42 43 44 45 46 47 48 49 50
000
NZUS01 KOTX 231900
RWROTX
EASTERN WASHINGTON/NORTHERN IDAHO ROUNDUP
NATIONAL WEATHER SERVICE, SPOKANE WA
1200 PM PDT TUE SEP 23 2014

Note: "fair" indicated few or no clouds below 12,000 feet with no
significant weather and/or obstructions to visibility.

...NORTHEAST WASHINGTON AND NORTHERN IDAHO PANHANDLE...

CITY           SKY/WX    TMP DP  RH WIND       PRES   REMARKS
SPOKANE INTL   PTSUNNY   70  56  61 E9        29.91F
SPOKANE DOWNTO CLOUDY    71  59  65 NE6       29.92F
COEUR D ALENE  PTSUNNY   70  59  68 E10       29.93F
DEER PARK      CLOUDY    74  53  48 NE5       29.93F

...SOUTHEAST WASHINGTON AND SOUTHERN IDAHO PANHANDLE...

CITY           SKY/WX    TMP DP  RH WIND       PRES   REMARKS
WALLA WALLA    CLOUDY    77  57  50 CALM      29.87F
PULLMAN/MOSCOW PTSUNNY   73  54  51 SE10      29.95R HAZE
LOWELL           N/A     68  56  65 N3        29.94F

...COLUMBIA BASIN...

CITY           SKY/WX    TMP DP  RH WIND       PRES   REMARKS
EPHRATA        LGT RAIN  72  54  53 NW5       29.87R
MOSES LAKE     CLOUDY    75  55  49 SW6       29.86S
TRI CITIES     CLOUDY    74  60  61 CALM      29.84S
HERMISTON      CLOUDY    73  53  49 CALM      29.84F
PENDLETON      CLOUDY    71  53  52 NW6       29.86F

...EAST SLOPES CASCADES...

CITY           SKY/WX    TMP DP  RH WIND       PRES   REMARKS
THE DALLES     CLOUDY    70  51  51 CALM      29.84F
YAKIMA         CLOUDY    71  49  45 CALM      29.85F
ELLENSBURG     CLOUDY    66  56  70 SW7       29.89F
WENATCHEE      LGT RAIN  66  52  60 NE5       29.87F
OMAK             N/A     70  52  52 MISG      29.88S

...SOUTHERN BRITISH COLUMBIA...

CITY           SKY/WX    TMP DP  RH WIND       PRES   REMARKS

...WESTERN MONTANA...

CITY           SKY/WX    TMP DP  RH WIND       PRES   REMARKS
MISSOULA       MOSUNNY   74  45  35 VRB3      30.02F

...NEIGHBORING CITIES...

CITY           SKY/WX    TMP DP  RH WIND       PRES   REMARKS
SEATTLE        CLOUDY    64  59  83 E6        29.84F



USA.gov is the U.S. government's official web portal to all federal, state and local government web resources and services.